Simultaneous Nadir Overpasses (SNOs) Predictions

Prediction of SNOs between FY3D and NOAA-19 Satellite Orbit:

Table of predicted SNOs for the next 14.0 days since TLE Epoch: 5/29/2021
Index Date (FY3D) Time (FY3D) Lat,Lon (FY3D) SZA (FY3D ) Date (NOAA-19) Time (NOAA-19) Lat,Lon (NOAA-19) SZA (NOAA-19 ) Distance(km) Time Diff (sec)
1 06/05/2021 21:11:11 78.29,-161.33 56.63 06/05/2021 21:10:03 78.27,-163.94 56.89 59.06 68
2 06/05/2021 22:02:00 -78.50, 4.79 123.08 06/05/2021 22:00:53 -78.48, 4.69 123.06 2.62 67
3 06/05/2021 22:52:46 78.52, 171.94 56.96 06/05/2021 22:51:57 78.50, 172.05 56.95 3.29 49
4 06/05/2021 23:43:29 -78.50, -20.59 123.09 06/05/2021 23:42:53 -78.50, -20.73 123.06 3.04 36
5 06/06/2021 00:34:15 78.52, 146.56 56.95 06/06/2021 00:33:57 78.51, 146.63 56.95 1.96 18
6 06/06/2021 01:24:59 -78.54, -46.20 123.04 06/06/2021 01:24:53 -78.51, -46.15 123.06 3.49 6
7 06/06/2021 02:15:44 78.53, 121.17 56.95 06/06/2021 02:15:57 78.53, 121.21 56.94 0.81 13
8 06/06/2021 03:06:28 -78.54, -71.58 123.04 06/06/2021 03:06:53 -78.52, -71.56 123.07 2.16 25
9 06/06/2021 03:57:13 78.53, 95.79 56.95 06/06/2021 03:57:57 78.54, 95.79 56.94 1.10 44
10 06/06/2021 04:47:57 -78.54, -96.96 123.04 06/06/2021 04:48:53 -78.53, -96.98 123.07 1.00 56
11 06/06/2021 05:38:43 78.57, 70.18 57.00 06/06/2021 05:39:57 78.55, 70.38 56.93 4.77 74



Historial Predications of SNOs between FY3D and NOAA-19
